Starlink 2569

operational
NORAD ID: 48277 Int'l Des: 2021-036 Owner: SPXS Country: US Constellation: starlink
LEOCIRCULARSTARLINK_TYPE

关于 Starlink 2569

正在加载描述...

实时位置

正在加载3D地球...

即将过境

高度历史

Altitude vs Time

uPlot chart will show altitude changes over time

两行轨道根数

1 48277U 21036B 26034.50632581 .00003484 00000-0 25263-3 0 9995
2 48277 53.0551 165.0751 0001298 88.8373 271.2764 15.06407255264142
Epoch: Feb 3, 2026 • Age: 21 hours

当前状态

高度 548.9 km
速度 7.59 km/s
星下点 33.91°N, 78.89°W
发射日期 Apr 29, 2021
运行时间 4.7 years
类型 internet

技术详情

分类 Payload
质量 260.00 kg
干质量 248.00 kg
总质量 260.00 kg
长度 0.20 m
直径 2.80 m
跨度 9.00 m
形状 Box + pan
制造商 SPXS
平台类型 Starlink
阶段状态 In Orbit
所有者/国家 SPXS/US

大型星座

Loading constellations...